Weather History for Poughkeepsie, NY

Change the Weather History Date:

Saturday, October 26, 2013

  Actual Average Record
Temperature  
Mean Temperature 42 °F 48 °F  
Max Temperature 55 °F 60 °F 81 °F (1963)
Min Temperature 29 °F 36 °F 19 °F (1952)
Degree Days  
Heating Degree Days 23 17  
Month to date heating degree days 245 346  
Since 1 July heating degree days 388 486  
Cooling Degree Days 0 0  
Month to date cooling degree days 8 0  
Year to date cooling degree days 829 668  
Moisture  
Dew Point 29 °F    
Average Humidity 57    
Maximum Humidity 92    
Minimum Humidity 31    
Precipitation  
Precipitation 0.00 in 0.14 in 1.35 in (1958)
Month to date precipitation 1.37 3.81  
Year to date precipitation 33.91 38.87  
Sea Level Pressure  
Sea Level Pressure 30.04 in    
Wind  
Wind Speed 6 mph (SSW)    
Max Wind Speed 22 mph    
Max Gust Speed 31 mph    
Visibility 10 miles    
Events      
T = Trace of Precipitation, MM = Missing Value Source: NWS Daily Summary

Daily Weather History Graph

Daily Weather History Graph

Search for Another Location

Airport:

Trip Planner

Search our weather history database for the weather conditions in past years. The results will help you decide how hot, cold, wet, or windy it might be!

Date:

Astronomy

Oct. 26, 2013 Rise Set
Actual Time 7:20 AM EDT 5:57 PM EDT
Civil Twilight 6:52 AM EDT 6:26 PM EDT
Nautical Twilight 6:19 AM EDT 6:58 PM EDT
Astronomical Twilight 5:47 AM EDT 7:30 PM EDT
Moon No Moon Rise 1:35 PM EDT (10/26)
Length of Visible Light 11h 34m
Length of Day
10h 37m
Waning Gibbous, 53% of the Moon is Illuminated
Oct 26
Waning Gibbous
Oct 26
Last Quarter
Nov 3
New
Nov 10
First Quarter
Nov 17
Full

Hourly Weather History & Observations

Time (EDT) Temp. Windchill Dew Point Humidity Pressure Visibility Wind Dir Wind Speed Gust Speed Precip Events Conditions
12:53 AM 42.1 °F 38.4 °F 33.1 °F 70% 30.19 in 10.0 mi SSW 5.8 mph - N/A   Clear
1:53 AM 36.0 °F - 30.9 °F 82% 30.18 in 10.0 mi Calm Calm - N/A   Clear
2:53 AM 36.0 °F 32.1 °F 32.0 °F 86% 30.18 in 10.0 mi South 4.6 mph - N/A   Clear
3:53 AM 36.0 °F - 32.0 °F 86% 30.17 in 10.0 mi Calm Calm - N/A   Clear
4:53 AM 34.0 °F 31.0 °F 32.0 °F 92% 30.17 in 10.0 mi SSE 3.5 mph - N/A   Clear
5:53 AM 30.9 °F - 27.0 °F 85% 30.16 in 10.0 mi Calm Calm - N/A   Clear
6:53 AM 30.9 °F - 28.9 °F 92% 30.15 in 10.0 mi Calm Calm - N/A   Clear
7:53 AM 32.0 °F - 30.0 °F 92% 30.16 in 10.0 mi Calm Calm - N/A   Clear
8:53 AM 41.0 °F 39.0 °F 33.1 °F 73% 30.16 in 10.0 mi SW 3.5 mph - N/A   Clear
9:53 AM 45.0 °F 39.7 °F 30.9 °F 58% 30.13 in 10.0 mi SW 10.4 mph - N/A   Clear
10:53 AM 48.0 °F - 30.0 °F 50% 30.10 in 10.0 mi SSW 10.4 mph - N/A   Clear
11:53 AM 50.0 °F - 26.1 °F 39% 30.07 in 10.0 mi SW 12.7 mph 25.3 mph N/A   Clear
12:53 PM 52.0 °F - 26.1 °F 37% 30.04 in 10.0 mi SW 15.0 mph 25.3 mph N/A   Partly Cloudy
1:53 PM 53.1 °F - 26.1 °F 35% 29.99 in 10.0 mi SW 21.9 mph 31.1 mph N/A   Clear
2:53 PM 54.0 °F - 26.1 °F 34% 29.97 in 10.0 mi SSW 12.7 mph 23.0 mph N/A   Clear
3:53 PM 55.0 °F - 25.0 °F 31% 29.94 in 10.0 mi SW 13.8 mph 21.9 mph N/A   Clear
4:53 PM 54.0 °F - 26.1 °F 34% 29.91 in 10.0 mi South 10.4 mph 23.0 mph N/A   Clear
5:53 PM 52.0 °F - 26.1 °F 37% 29.90 in 10.0 mi Variable 4.6 mph - N/A   Clear
6:53 PM 51.1 °F - 27.0 °F 39% 29.91 in 10.0 mi South 5.8 mph - N/A   Overcast
7:53 PM 51.1 °F - 28.9 °F 43% 29.90 in 10.0 mi South 3.5 mph - N/A   Overcast
8:53 PM 51.1 °F - 28.9 °F 43% 29.89 in 10.0 mi Variable 4.6 mph - N/A   Overcast
9:53 PM 51.1 °F - 28.9 °F 43% 29.89 in 10.0 mi SSW 5.8 mph - N/A   Overcast
10:53 PM 51.1 °F - 28.9 °F 43% 29.88 in 10.0 mi SSW 5.8 mph - N/A   Overcast
11:53 PM 50.0 °F - 30.0 °F 46% 29.86 in 10.0 mi SSW 4.6 mph - N/A   Overcast